Weather History for KLXY - March, 2014

Change the Weather History Date:

Thursday, March 27, 2014

  Actual Average (KACT) Record (KACT)
Temperature  
Mean Temperature 65 °F 61 °F  
Max Temperature 75 °F 73 °F 93 °F (1972)
Min Temperature 55 °F 50 °F 27 °F (1955)
Degree Days  
Heating Degree Days 0 6  
Month to date heating degree days 226  
Since 1 July heating degree days 2038  
Cooling Degree Days 0 2  
Month to date cooling degree days 29  
Year to date cooling degree days 38  
Growing Degree Days 15 (Base 50)    
Moisture  
Dew Point 61 °F    
Average Humidity 88    
Maximum Humidity 96    
Minimum Humidity 76    
Precipitation  
Precipitation 0.00 in 0.08 in 1.42 in (1980)
Month to date precipitation 2.80  
Year to date precipitation 7.55  
Snow  
Snow 0.00 in 0.00 in 0.00 in ()
Month to date snowfall 0.1  
Since 1 July snowfall 1.0  
Snow Depth -    
Sea Level Pressure  
Sea Level Pressure 29.81 in    
Wind  
Wind Speed 14 mph (SSE)    
Max Wind Speed 18 mph    
Max Gust Speed 28 mph    
Visibility 9 miles    
Events Rain    
T = Trace of Precipitation, MM = Missing Value Source: NWS Daily Summary

Daily Weather History Graph

Daily Weather History Graph

Search for Another Location

Airport or City:

Trip Planner

Search our weather history database for the weather conditions in past years. The results will help you decide how hot, cold, wet, or windy it might be!

Date:

Astronomy

Mar. 27, 2014 Rise Set
Actual Time 7:20 AM CDT 7:42 PM CDT
Civil Twilight 6:56 AM CDT 8:06 PM CDT
Nautical Twilight 6:28 AM CDT 8:35 PM CDT
Astronomical Twilight 5:59 AM CDT 9:04 PM CDT
Moon 5:00 AM CDT (3/27) 4:41 PM CDT (3/27)
Length of Visible Light 13h 10m
Length of Day
12h 21m
Waning Crescent, 13% of the Moon is Illuminated
Mar 27
Waning Crescent
Mar 30
New
Apr 7
First Quarter
Apr 15
Full
Apr 22
Last Quarter

Hourly Weather History & Observations

Time (CDT) Temp. Dew Point Humidity Pressure Visibility Wind Dir Wind Speed Gust Speed Precip Events Conditions
12:15 AM 55.6 °F 50.9 °F 84% 29.96 in 10.0 mi SSE 11.5 mph - N/A   Overcast
12:35 AM 55.8 °F 51.3 °F 85% 29.96 in 10.0 mi SSE 10.4 mph - N/A   Overcast
12:55 AM 56.1 °F 51.8 °F 85% 29.94 in 10.0 mi SSE 13.8 mph 18.4 mph N/A   Overcast
1:15 AM 56.3 °F 51.8 °F 85% 29.93 in 10.0 mi SSE 18.4 mph 23.0 mph N/A   Overcast
1:35 AM 56.7 °F 52.2 °F 85% 29.93 in 10.0 mi SSE 17.3 mph 21.9 mph N/A   Overcast
1:55 AM 57.0 °F 52.5 °F 85% 29.92 in 10.0 mi SSE 16.1 mph 23.0 mph N/A   Overcast
2:15 AM 57.2 °F 52.7 °F 85% 29.91 in 10.0 mi SSE 16.1 mph 23.0 mph N/A   Overcast
2:35 AM 57.4 °F 53.1 °F 85% 29.90 in 10.0 mi SSE 13.8 mph 23.0 mph N/A   Overcast
2:55 AM 57.6 °F 53.6 °F 87% 29.89 in 10.0 mi SSE 15.0 mph 21.9 mph N/A   Overcast
3:15 AM 58.1 °F 54.0 °F 86% 29.87 in 10.0 mi SSE 16.1 mph 24.2 mph N/A   Overcast
3:35 AM 58.3 °F 54.3 °F 87% 29.87 in 10.0 mi SSE 15.0 mph - N/A   Overcast
3:55 AM 58.5 °F 54.5 °F 87% 29.86 in 10.0 mi SSE 17.3 mph 23.0 mph N/A   Overcast
4:15 AM 59.0 °F 54.9 °F 86% 29.85 in 10.0 mi SSE 17.3 mph 23.0 mph N/A   Overcast
4:35 AM 59.0 °F 55.0 °F 87% 29.84 in 10.0 mi SSE 13.8 mph 21.9 mph N/A   Overcast
4:55 AM 59.0 °F 55.4 °F 88% 29.83 in 10.0 mi SSE 15.0 mph 19.6 mph N/A   Overcast
5:15 AM 59.5 °F 55.6 °F 87% 29.82 in 10.0 mi SSE 13.8 mph 20.7 mph N/A   Overcast
5:35 AM 59.9 °F 55.8 °F 86% 29.82 in 10.0 mi SSE 13.8 mph 23.0 mph N/A   Overcast
5:55 AM 59.9 °F 56.1 °F 87% 29.82 in 10.0 mi SSE 11.5 mph 18.4 mph N/A   Overcast
6:15 AM 60.6 °F 56.3 °F 86% 29.82 in 10.0 mi SSE 11.5 mph 19.6 mph N/A   Overcast
6:35 AM 61.3 °F 57.0 °F 86% 29.82 in 10.0 mi SSE 16.1 mph 24.2 mph N/A   Overcast
6:55 AM 61.7 °F 57.4 °F 86% 29.82 in 10.0 mi South 17.3 mph 25.3 mph N/A   Overcast
7:15 AM 61.9 °F 57.7 °F 86% 29.82 in 10.0 mi South 17.3 mph 24.2 mph N/A   Overcast
7:35 AM 61.9 °F 58.1 °F 87% 29.82 in 10.0 mi SSE 15.0 mph 26.5 mph N/A   Overcast
7:55 AM 62.1 °F 58.5 °F 88% 29.83 in 10.0 mi South 17.3 mph 26.5 mph N/A   Overcast
8:15 AM 62.6 °F 59.0 °F 88% 29.83 in 10.0 mi South 18.4 mph 26.5 mph N/A   Overcast
8:35 AM 62.6 °F 59.0 °F 88% 29.83 in 10.0 mi South 16.1 mph 21.9 mph N/A   Overcast
8:55 AM 63.0 °F 59.4 °F 88% 29.83 in 10.0 mi SSE 15.0 mph 23.0 mph N/A   Overcast
9:15 AM 63.5 °F 59.9 °F 88% 29.82 in 10.0 mi South 18.4 mph 25.3 mph N/A   Overcast
9:35 AM 63.7 °F 60.3 °F 89% 29.82 in 10.0 mi South 17.3 mph 26.5 mph N/A   Overcast
9:55 AM 64.0 °F 60.8 °F 89% 29.83 in 10.0 mi South 18.4 mph 23.0 mph N/A   Overcast
10:15 AM 64.6 °F 61.0 °F 88% 29.82 in 10.0 mi South 17.3 mph 24.2 mph N/A   Overcast
10:35 AM 65.1 °F 61.3 °F 88% 29.83 in 10.0 mi South 15.0 mph 27.6 mph N/A   Overcast
10:55 AM 65.3 °F 61.7 °F 88% 29.84 in 10.0 mi South 16.1 mph 19.6 mph N/A   Overcast
11:15 AM 65.5 °F 61.9 °F 88% 29.84 in 10.0 mi South 16.1 mph 21.9 mph N/A   Overcast
11:35 AM 65.3 °F 63.0 °F 92% 29.85 in 4.0 mi South 12.7 mph 21.9 mph N/A Rain Light Rain
11:55 AM 64.9 °F 62.8 °F 93% 29.85 in 10.0 mi South 12.7 mph - N/A   Overcast
12:15 PM 64.8 °F 63.0 °F 94% 29.85 in 2.5 mi South 12.7 mph 19.6 mph N/A   Overcast
12:35 PM 64.9 °F 63.5 °F 95% 29.85 in 3.0 mi South 11.5 mph - N/A   Overcast
12:55 PM 65.3 °F 63.9 °F 95% 29.84 in 4.0 mi South 13.8 mph - N/A   Overcast
1:15 PM 65.8 °F 64.4 °F 95% 29.84 in 7.0 mi South 12.7 mph - N/A   Overcast
1:35 PM 66.4 °F 64.6 °F 94% 29.83 in 7.0 mi South 12.7 mph 17.3 mph N/A   Overcast
1:55 PM 67.1 °F 65.3 °F 94% 29.82 in 4.0 mi South 11.5 mph - N/A   Overcast
2:20 PM 67.6 °F 66.0 °F 95% 29.81 in 5.0 mi South 12.7 mph - N/A   Overcast
2:35 PM 68.2 °F 66.2 °F 93% 29.80 in 7.0 mi South 10.4 mph - N/A   Overcast
2:55 PM 69.6 °F 66.6 °F 90% 29.79 in 10.0 mi South 9.2 mph 17.3 mph N/A   Overcast
3:15 PM 70.5 °F 66.2 °F 86% 29.79 in 10.0 mi South 12.7 mph 18.4 mph N/A   Overcast
3:35 PM 71.6 °F 66.4 °F 84% 29.78 in 10.0 mi South 11.5 mph 17.3 mph N/A   Overcast
3:55 PM 71.1 °F 66.2 °F 85% 29.78 in 10.0 mi South 10.4 mph - N/A   Overcast
4:15 PM 72.0 °F 66.4 °F 83% 29.77 in 10.0 mi South 11.5 mph 16.1 mph N/A   Overcast
4:35 PM 72.7 °F 66.4 °F 81% 29.77 in 10.0 mi South 13.8 mph - N/A   Overcast
5:00 PM 74.5 °F 67.1 °F 78% 29.76 in 10.0 mi South 11.5 mph 17.3 mph N/A   Overcast
5:15 PM 75.6 °F 67.6 °F 76% 29.75 in 10.0 mi SSE 16.1 mph - N/A   Mostly Cloudy
5:35 PM 74.7 °F 66.9 °F 77% 29.74 in 10.0 mi South 16.1 mph - N/A   Mostly Cloudy
5:55 PM 74.5 °F 66.7 °F 77% 29.73 in 10.0 mi South 16.1 mph 23.0 mph N/A   Scattered Clouds
6:15 PM 74.3 °F 66.7 °F 77% 29.73 in 10.0 mi SSE 15.0 mph 24.2 mph N/A   Scattered Clouds
6:35 PM 73.4 °F 66.4 °F 79% 29.73 in 10.0 mi South 17.3 mph 24.2 mph N/A   Scattered Clouds
6:55 PM 72.7 °F 66.4 °F 81% 29.73 in 10.0 mi SSE 13.8 mph 21.9 mph N/A   Scattered Clouds
7:15 PM 71.8 °F 66.2 °F 83% 29.73 in 10.0 mi South 13.8 mph - N/A   Scattered Clouds
7:35 PM 70.9 °F 66.2 °F 85% 29.73 in 10.0 mi SSE 13.8 mph 19.6 mph N/A   Clear
7:55 PM 70.0 °F 66.0 °F 87% 29.74 in 10.0 mi SSE 11.5 mph 16.1 mph N/A   Clear
8:15 PM 68.9 °F 65.7 °F 89% 29.74 in 10.0 mi South 9.2 mph - N/A   Clear
8:35 PM 68.2 °F 65.7 °F 92% 29.75 in 10.0 mi SSE 8.1 mph - N/A   Clear
8:55 PM 67.6 °F 65.7 °F 93% 29.76 in 10.0 mi SSE 9.2 mph - N/A   Clear
9:15 PM 67.5 °F 65.7 °F 94% 29.76 in 10.0 mi SSE 10.4 mph - N/A   Clear
9:35 PM 67.3 °F 65.5 °F 94% 29.76 in 10.0 mi SSE 8.1 mph - N/A   Scattered Clouds
9:55 PM 67.5 °F 66.2 °F 96% 29.76 in 10.0 mi SSE 10.4 mph - N/A   Mostly Cloudy
10:15 PM 68.0 °F 66.4 °F 95% 29.77 in 10.0 mi SSE 12.7 mph - N/A   Overcast
10:35 PM 68.0 °F 66.6 °F 95% 29.77 in 10.0 mi South 13.8 mph 19.6 mph N/A   Overcast
10:55 PM 68.2 °F 66.6 °F 95% 29.77 in 10.0 mi South 12.7 mph 19.6 mph N/A   Overcast
11:15 PM 68.2 °F 66.6 °F 95% 29.77 in 10.0 mi South 12.7 mph 20.7 mph N/A   Overcast
11:35 PM 68.4 °F 66.7 °F 95% 29.77 in 10.0 mi South 15.0 mph 20.7 mph N/A   Overcast
11:55 PM 68.4 °F 66.7 °F 95% 29.77 in 10.0 mi South 15.0 mph 19.6 mph N/A   Overcast